METAR Formatted Surface Weather Observation
Issued by NWS

Home | Current Version | Previous Version | Text Only | Print | Product List | Glossary On
Versions: 1 2 3 4 5 6 7 8 9 10 11 12 13 14 15 16 17 18 19 20 21 22 23 24 25 26 27 28 29 30 31 32 33 34 35 36 37 38 39 40 41 42 43 44 45 46 47 48 49 50
867
SAUS44 KLIX 210655
MTRBVE
METAR KBVE 210651Z AUTO 30016G25KT 8SM -RA OVC036 17/16 A3001 RMK
AO2 PK WND 29029/0613 WSHFT 0601 RAB07 SLP160 P0007 T01670161



USA.gov is the U.S. government's official web portal to all federal, state and local government web resources and services.